Regional Weather Roundup
Issued by NWS Kansas City/Pleasant Hill, MO

Home | Current Version | Previous Version | Graphics & Text | Print | Product List | Glossary Off
Versions: 1 2 3 4 5 6 7 8 9 10 11 12 13 14 15 16 17 18 19 20 21 22 23 24 25 26 27 28 29 30 31 32 33 34 35 36 37 38 39 40 41 42 43 44 45 46 47 48 49 50

000
ASUS43 KEAX 210111
RWREAX

WEATHER ROUNDUP FOR EASTERN KANSAS AND NORTHWEST MISSOURI
NATIONAL WEATHER SERVICE KANSAS CITY/PLEASANT HILL MO
700 PM CST SAT DEC 20 2014

KSZ040-057-103>105-MOZ028-029-037-043-210200-
...KANSAS CITY METROPOLITAN AREA...

CITY           SKY/WX    TMP DP  RH WIND       PRES   REMARKS
K.C. INTL      CLOUDY    42  37  82 S10       30.12R
K.C. DOWNTOWN  CLEAR     41  35  79 S9        30.15R
LEES SUMMIT    PTCLDY    39  34  82 S10       30.15R WCI  32
OLATHE - IXD   CLEAR     37  34  89 S10       30.14R WCI  30
OLATHE - OJC   CLEAR     37  34  89 S10       30.14R WCI  30
LAWRENCE       CLEAR     37  34  89 SE7       30.13R WCI  32

$$

MOZ001>008-011>017-020>025-030>033-038>040-044>046-053-054-210200-
...NORTHERN AND CENTRAL MISSOURI...

CITY           SKY/WX    TMP DP  RH WIND       PRES   REMARKS
ST. JOSEPH     CLOUDY    38  36  92 CALM      30.11S
MOSBY          CLOUDY    41  36  81 SE6       30.15R
WARRENSBURG    CLOUDY    37  34  87 S6        30.18R WCI  33
WHITEMAN AFB   CLOUDY    39  34  83 S10       30.18R WCI  32
CLINTON        CLOUDY    41  36  81 S3        30.19S
SEDALIA        CLOUDY    41  34  76 SW9       30.19R
WARSAW         NOT AVBL
MARSHALL       CLOUDY    41  39  93 S7        30.19S
CHILLICOTHE      N/A     39  36  89 S6        30.17R WCI  35
MOBERLY        CLOUDY    39  32  75 S5        30.20S
KIRKSVILLE     CLOUDY    37  36  96 S8        30.18S WCI  31

$$

MOZ041-047>049-056>058-063>065-088>090-097-210200-
...EASTERN AND SOUTHERN MISSOURI...

CITY           SKY/WX    TMP DP  RH WIND       PRES   REMARKS
ST. LOUIS INTL CLOUDY    43  32  65 SE8       30.25R
SPIRIT OF STL  CLOUDY    42  34  73 SE5       30.24R
COLUMBIA       CLOUDY    40  36  86 SE3       30.20S
JEFFERSON CITY CLOUDY    41  36  82 SE5       30.21S
MEXICO         CLOUDY   N/A N/A N/A SE5       30.21R
HANNIBAL       CLOUDY    39  34  81 SE6       30.21S WCI  35
ROLLA          CLOUDY    39  34  82 SW5       30.19R
LEBANON        CLOUDY    41  36  81 S8        30.20R
OSAGE BEACH    CLOUDY    43  34  70 S5        30.20S
SPRINGFIELD    CLOUDY    42  36  79 S8        30.18R
BRANSON        CLOUDY    41  39  93 CALM      30.19S FOG
NEVADA         CLOUDY    37  34  87 S3        30.19R
JOPLIN         CLOUDY    43  35  73 S10       30.18S
WEST PLAINS    CLOUDY    41  35  79 S5        30.22R

$$

IAZ060-094-KSZ022-034>040-054-083-096-NEZ052-066-093-210200-
...KANSAS...SOUTHEAST NEBRASKA AND IOWA...

CITY           SKY/WX    TMP DP  RH WIND       PRES   REMARKS
TOPEKA         PTCLDY    44  37  76 S7        30.11S
MANHATTAN      MOCLDY    40  37  89 SW8       30.08S WCI  34
EMPORIA        PTCLDY    36  33  89 S7        30.11R WCI  30
CHANUTE        CLEAR     36  33  89 S8        30.15R WCI  30
WICHITA        CLOUDY    44  36  73 S14       30.11R
OMAHA          CLOUDY    35  32  88 S9        30.09F FOG     WCI  28
LINCOLN        CLOUDY    36  33  89 SE10      30.07S WCI  28
FALLS CITY     CLOUDY    34  33  96 E5        30.09F FOG     WCI  30
LAMONI         FOG       35  34  96 SE8       30.12S VSB 3/4 WCI  29
DES MOINES     CLOUDY    36  33  89 S6        30.14S WCI  31

$$




USA.gov is the U.S. government's official web portal to all federal, state and local government web resources and services.